24h Messdaten per 23.08.2022 um 20:54:01

Datum Zeit Luftdruck Temp Balkon Feuchte Balkon Temp Strasse Feuchte Strasse Wind km/h Wind Boe Wind aus (Grad) Regen l/15min Sonne h/Monat
23.08.22 20:54:01 1015
23.08.22 20:49:01 1015 20.8 25
23.08.22 20:44:01 1015 20.9 24
23.08.22 20:39:02 1015 21.2 24
23.08.22 20:34:02 1015 21.3 20
23.08.22 20:29:02 1015 21.5 20
23.08.22 20:24:02 1015 22.0 20
23.08.22 20:19:01 1014 22.9 20
23.08.22 20:14:01 1014 22.9 20
23.08.22 20:09:02 1014 23.4 20
23.08.22 20:04:02 1014 23.9 20
23.08.22 19:59:02 1014 24.2 20 0.0
23.08.22 19:54:02 1014 24.8 20 0.0
23.08.22 19:49:02 1014 25.6 20 0.0
23.08.22 19:44:01 1014 26.0 20 0.0
23.08.22 19:39:02 1014 26.8 20 0.0
23.08.22 19:34:02 1014 27.2 20 0.0
23.08.22 19:29:02 1014 27.9 20 0.0
23.08.22 19:24:01 1014 28.1 20 0.0
23.08.22 19:19:01 1014 29.2 20 0.0
23.08.22 19:14:01 1014 29.3 20 0.0
23.08.22 19:09:01 1014 29.8 20 0.0
23.08.22 19:04:01 1014 29.6 20 0.0
23.08.22 18:59:01 1014 29.5 20 0.0 0.0 67.5 0.0
23.08.22 18:54:02 1014 29.5 20 0.0 0.0 67.5 0.0
23.08.22 18:49:02 1014 29.1 20 0.0 0.0 67.5 0.0
23.08.22 18:44:02 1014 28.2 20 0.0 0.0 112.5 0.0
23.08.22 18:39:01 1014 27.4 20 0.0 0.0 112.5 0.0
23.08.22 18:34:01 1014 27.6 20 0.0 0.0 112.5 0.0
23.08.22 18:29:01 1014 27.5 20 0.0 0.0 112.5 0.0
23.08.22 18:24:02 1014 28.1 20 0.0 0.0 112.5 0.0
23.08.22 18:19:02 1014 28.2 20 0.0 0.0 22.5 0.0
23.08.22 18:14:02 1014 27.1 20 0.0 0.0 247.5 0.0
23.08.22 18:09:01 1014 26.8 20 0.0 0.0 247.5 0.0
23.08.22 18:04:01 1014 26.8 20 0.0 0.0 247.5 0.0
23.08.22 17:59:01 27.0 20 0.0 0.0 270 0.0
23.08.22 17:54:01 1014 27.3 20 0.0 0.0 270 0.0
23.08.22 17:49:01 1014 27.4 20 0.0 0.0 270 0.0
23.08.22 17:44:01 1014 27.8 20 0.0 0.0 22.5 0.0
23.08.22 17:39:02 1014 28.6 20 0.0 0.0 22.5 0.0
23.08.22 17:34:02 1014 29.3 20 0.0 0.0 67.5 0.0
23.08.22 17:29:02 1014 29.9 20 0.0 0.0 45 0.0
23.08.22 17:24:02 1014 0.0 0.0 45 0.0
23.08.22 17:19:01 1014 0.0 0.0 22.5 0.0
23.08.22 17:14:01 1014 0.0 0.0 157.5 0.0
23.08.22 17:09:02 1014 29.5 20 0.0 0.0 157.5 0.0
23.08.22 17:04:02 1014 30.2 20 0.0 0.0 315 0.0
23.08.22 16:59:02 1014 30.9 20 0.0 0.0 180 0.0
23.08.22 16:54:02 1014 32.8 20 0.0 0.0 180 0.0
23.08.22 16:49:01 1014 32.4 20 0.0 0.0 270 0.0
23.08.22 16:44:01 1014 31.8 20 0.0 0.0 247.5 0.0
23.08.22 16:39:02 1014 32.4 20 0.0 0.0 247.5 0.0
23.08.22 16:34:02 1014 35.5 20 0.0 0.0 292.5 0.0
23.08.22 16:29:01 1014 34.2 20 0.0 0.0 247.5 0.0
23.08.22 16:24:01 1014 32.9 20 0.0 0.0 247.5 0.0
23.08.22 16:19:01 1014 34.2 20 0.4 0.0 180 0.0
23.08.22 16:14:01 34.2 20 0.0 3.6 247.5 0.0
23.08.22 16:09:01 1014 36.4 20 0.0 3.6 247.5 0.0
23.08.22 16:04:01 1014 32.5 20 0.0 0.0 337.5 0.0
23.08.22 15:59:01 1014 30.6 20 0.0 0.0 0 0.0
23.08.22 15:54:01 1014 30.4 20 0.0 0.0 0 0.0
23.08.22 15:49:01 1014 29.2 20 0.0 0.0 337.5 0.0
23.08.22 15:44:01 1014 32.0 20 0.0 0.0 315 0.0
23.08.22 15:38:02 32.8 20 0.0 0.0 315 0.0
23.08.22 15:34:02 1014 34.2 20 0.0 0.0 112.5 0.0
23.08.22 15:29:02 1014 37.1 20 0.0 0.0 0 0.0
23.08.22 15:24:01 1014 32.1 20 0.0 0.0 0 0.0
23.08.22 15:19:01 1014 32.1 20 0.0 0.0 67.5 0.0
23.08.22 15:14:01 1014 29.8 20 0.0 0.0 270 0.0
23.08.22 15:09:01 1014 30.6 20 0.0 0.0 270 0.0
23.08.22 15:04:01 30.5 20 0.4 0.0 67.5 0.0
23.08.22 14:59:01 1014 30.6 20 0.4 0.0 112.5 0.0
23.08.22 14:54:01 1014 31.5 20 0.4 0.0 112.5 0.0
23.08.22 14:49:01 1014 29.3 20 0.4 1.8 247.5 0.0
23.08.22 14:44:01 1014 29.4 20 0.7 0.0 0 0.0
23.08.22 14:38:02 1014 29.0 20 0.7 0.0 0 0.0
23.08.22 14:33:02 1014 29.0 20 0.7 1.8 270 0.0
23.08.22 14:28:02 29.2 20 0.7 0.0 90 0.0
23.08.22 14:24:02 1014 29.4 20 0.7 0.0 90 0.0
23.08.22 14:19:01 1014 30.8 20 1.1 1.8 292.5 0.0
23.08.22 14:14:01 1014 32.3 20 1.1 0.0 315 0.0
23.08.22 14:09:02 1014 35.3 20 1.1 0.0 315 0.0
23.08.22 14:04:02 1014 36.7 20 1.1 1.8 247.5 0.0
23.08.22 13:59:01 1014 31.7 20 0.7 2.9 337.5 0.0
23.08.22 13:54:01 1014 34.2 20 0.7 2.9 337.5 0.0
23.08.22 13:49:01 1014 37.7 20 0.7 2.9 292.5 0.0
23.08.22 13:44:01 36.1 20 0.7 0.0 180 0.0
23.08.22 13:39:02 1014 36.1 20 0.7 0.0 180 0.0
23.08.22 13:34:01 1014 37.7 20 1.1 0.0 292.5 0.0
23.08.22 13:29:01 1014 36.4 20 1.1 4.0 270 0.0
23.08.22 13:24:02 1014 34.2 20 1.1 4.0 270 0.0
23.08.22 13:19:01 1014 33.2 20 1.1 0.0 292.5 0.0
23.08.22 13:14:01 1014 33.2 20 0.0 0.0 270 0.0
23.08.22 13:09:02 1014 30.8 20 0.0 0.0 270 0.0
23.08.22 13:04:02 1014 31.1 20 0.4 0.0 180 0.0
23.08.22 12:59:02 1014 30.6 20 0.7 3.2 270 0.0
23.08.22 12:54:02 1014 0.7 3.2 270 0.0
23.08.22 12:49:02 1014 1.1 2.2 315 0.0
23.08.22 12:44:01 1014 1.4 1.8 247.5 0.0
23.08.22 12:39:01 1014 33.7 20 1.4 1.8 247.5 0.0
23.08.22 12:34:01 1014 33.4 20 1.4 3.6 270 0.0
23.08.22 12:29:01 1014 34.9 20 1.4 0.0 247.5 0.0
23.08.22 12:24:01 1014 37.5 20 1.4 0.0 247.5 0.0
23.08.22 12:19:01 1015 36.6 20 1.1 1.8 225 0.0
23.08.22 12:14:01 1014 35.4 20 1.1 1.8 67.5 0.0
23.08.22 12:09:01 1015 1.1 1.8 67.5 0.0
23.08.22 12:04:01 1015 1.1 1.8 135 0.0
23.08.22 11:59:01 1015 0.7 0.0 337.5 0.0
23.08.22 11:54:01 1015 37.5 20 0.7 0.0 337.5 0.0
23.08.22 11:49:01 1015 36.6 20 1.4 1.8 90 0.0
23.08.22 11:44:01 1015 36.3 20 1.8 2.2 270 0.0
23.08.22 11:38:02 1015 37.9 20 1.8 2.2 270 0.0
23.08.22 11:33:02 1015 36.5 20 2.5 3.2 112.5 0.0
23.08.22 11:28:02 1015 34.2 20 1.1 2.2 22.5 0.0
23.08.22 11:24:01 1015 35.0 20 1.1 2.2 22.5 0.0
23.08.22 11:19:01 1015 36.4 20 0.4 0.0 202.5 0.0
23.08.22 11:14:01 1015 38.1 20 1.1 0.0 67.5 0.0
23.08.22 11:08:02 1015 33.8 20 1.1 0.0 67.5 0.0
23.08.22 11:03:02 1015 33.0 20 1.1 1.4 135 0.0
23.08.22 10:59:02 1015 33.0 20 1.4 0.0 135 0.0
23.08.22 10:54:01 1015 33.9 20 1.4 0.0 135 0.0
23.08.22 10:49:01 1015 35.7 20 1.8 2.9 135 0.0
23.08.22 10:44:01 1015 31.8 20 1.8 5.4 135 0.0
23.08.22 10:39:02 1015 1.8 5.4 135 0.0
23.08.22 10:34:01 1015 1.4 1.8 135 0.0
23.08.22 10:29:01 1015 1.1 0.0 0 0.0
23.08.22 10:24:01 1015 33.2 20 1.1 0.0 0 0.0
23.08.22 10:19:01 1015 33.1 20 1.4 2.2 292.5 0.0
23.08.22 10:14:01 1015 30.9 20 2.9 4.7 67.5 0.0
23.08.22 10:08:02 1015 32.5 20 2.9 4.7 67.5 0.0
23.08.22 10:03:02 1015 31.8 20 2.9 4.7 67.5 0.0
23.08.22 09:58:02 1015 32.0 20 1.4 4.0 112.5 0.0
23.08.22 09:53:02 1015 32.0 20 1.4 4.0 112.5 0.0
23.08.22 09:48:02 1014 29.8 20 1.4 1.4 67.5 0.0
23.08.22 09:43:02 1014 28.5 20 1.1 1.8 135 0.0
23.08.22 09:39:01 1014 29.0 20 1.1 1.8 135 0.0
23.08.22 09:34:01 1014 28.2 20 1.1 4.3 315 0.0
23.08.22 09:29:01 1014 28.5 20 0.7 0.0 225 0.0
23.08.22 09:24:01 1014 27.7 20 0.7 0.0 225 0.0
23.08.22 09:19:01 1014 27.7 20 0.4 0.0 135 0.0
23.08.22 09:14:01 27.2 20 2.2 1.4 135 0.0
23.08.22 09:08:02 1014 26.4 20 2.2 1.4 135 0.0
23.08.22 09:03:02 1014 26.1 20 2.2 1.8 270 0.0
23.08.22 08:58:02 1014 24.6 20 1.1 2.2 157.5 0.0
23.08.22 08:54:01 1014 23.8 21 1.1 2.2 157.5 0.0
23.08.22 08:49:01 1014 22.0 23 1.8 3.2 202.5 0.0
23.08.22 08:44:01 1014 21.9 24 1.8 2.9 112.5 0.0
23.08.22 08:38:02 1014 22.1 26 1.8 2.9 112.5 0.0
23.08.22 08:33:02 1014 20.3 29 2.5 2.9 67.5 0.0
23.08.22 08:28:02 1014 19.2 30 2.5 3.6 112.5 0.0
23.08.22 08:24:01 1014 19.7 29 2.5 3.6 112.5 0.0
23.08.22 08:19:01 1014 18.6 31 2.5 3.2 135 0.0
23.08.22 08:14:01 1014 18.2 32 1.1 3.6 112.5 0.0
23.08.22 08:08:02 1014 17.4 34 1.1 3.6 112.5 0.0
23.08.22 08:03:02 1014 16.9 36 1.1 0.0 112.5 0.0
23.08.22 07:58:01 1014 16.9 36 2.2 2.2 112.5 0.0
23.08.22 07:54:01 1014 16.4 37 2.2 2.2 112.5 0.0
23.08.22 07:49:01 1014 15.8 38 2.9 3.6 157.5 0.0
23.08.22 07:44:01 1014 15.4 40 2.9 5.0 135 0.0
23.08.22 07:38:02 1014 15.2 40 2.9 5.0 135 0.0
23.08.22 07:33:02 1014 14.8 41 2.5 2.9 90 0.0
23.08.22 07:28:02 1014 14.4 43 2.2 0.0 112.5 0.0
23.08.22 07:23:02 1014 14.2 44 2.2 0.0 112.5 0.0
23.08.22 07:18:01 1014 13.7 46 2.2 3.2 135 0.0
23.08.22 07:14:01 1014 13.4 49 2.2 5.4 112.5 0.0
23.08.22 07:09:01 1013 13.2 50 2.2 5.4 112.5 0.0
23.08.22 07:04:01 1013 12.7 53 1.8 4.3 112.5 0.0
23.08.22 06:59:01 1014 12.6 54 2.2 4.0 90 0.0
23.08.22 06:53:01 1014 12.2 55 2.2 4.0 90 0.0
23.08.22 06:48:01 1013 12.2 55 2.2 1.4 90 0.0
23.08.22 06:44:01 1013 11.7 54 1.4 1.8 22.5 0.0
23.08.22 06:38:03 1013 11.7 53 1.4 1.8 22.5 0.0
23.08.22 06:33:03 1013 11.5 52 1.4 2.5 90 0.0
23.08.22 06:28:03 1013 11.4 51 1.1 0.0 157.5 0.0
23.08.22 06:23:02 1013 11.5 51 1.1 0.0 157.5 0.0
23.08.22 06:18:01 1013 11.6 50 1.8 5.0 225 0.0
23.08.22 06:13:01 1013 11.5 50 1.1 0.0 157.5 0.0
23.08.22 06:08:02 1013 11.6 51 1.1 0.0 157.5 0.0
23.08.22 06:03:02 0.7 1.8 112.5 0.0
23.08.22 05:58:02 1013 11.3 49 0.7 0.0 135 0.0
23.08.22 05:53:02 1013 11.4 49 0.7 0.0 135 0.0
23.08.22 05:48:02 1013 11.6 49 0.4 2.5 90 0.0
23.08.22 05:43:01 1013 11.7 49 1.4 2.5 135 0.0
23.08.22 05:39:01 1013 11.9 49 1.4 2.5 135 0.0
23.08.22 05:34:01 1013 11.9 49 1.4 0.0 112.5 0.0
23.08.22 05:29:01 1013 12.0 48 0.7 2.5 112.5 0.0
23.08.22 05:23:01 1013 12.0 47 0.7 2.5 112.5 0.0
23.08.22 05:18:01 1013 12.1 46 0.4 1.8 112.5 0.0
23.08.22 05:13:01 1013 12.3 45 0.0 1.4 112.5 0.0
23.08.22 05:08:02 1013 12.8 46 0.0 0.0 45 0.0
23.08.22 05:03:02 0.0 0.0 45 0.0
23.08.22 04:58:02 1013 13.2 45 0.0 0.0 45 0.0
23.08.22 04:53:02 1013 13.2 45 0.0 0.0 90 0.0
23.08.22 04:48:02 1013 13.2 44 0.0 0.0 135 0.0
23.08.22 04:43:02 1013 13.4 45 0.0 0.0 112.5 0.0
23.08.22 04:38:02 1013 13.4 45 0.0 0.0 112.5 0.0
23.08.22 04:33:02 13.3 47 0.0 0.0 337.5 0.0
23.08.22 04:28:01 1013 13.1 47 0.0 0.0 112.5 0.0
23.08.22 04:23:02 1013 13.0 47 0.0 0.0 112.5 0.0
23.08.22 04:18:01 1013 13.0 47 0.0 0.0 270 0.0
23.08.22 04:13:01 1013 13.0 45 0.0 0.0 270 0.0
23.08.22 04:08:02 12.9 44 0.0 0.0 270 0.0
23.08.22 04:03:02 1013 13.5 44 0.0 0.0 135 0.0
23.08.22 03:58:02 1013 13.6 43 0.0 0.0 112.5 0.0
23.08.22 03:53:01 1013 13.6 43 0.0 0.0 112.5 0.0
23.08.22 03:48:01 1013 13.7 43 0.0 0.0 22.5 0.0
23.08.22 03:43:01 1013 13.7 43 0.0 0.0 112.5 0.0
23.08.22 03:38:02 1012 13.8 43 0.0 0.0 112.5 0.0
23.08.22 03:33:02 1012 0.0 0.0 315 0.0
23.08.22 03:28:02 1012 13.8 43 0.0 0.0 67.5 0.0
23.08.22 03:23:02 1012 13.8 43 0.0 0.0 67.5 0.0
23.08.22 03:18:01 1012 13.9 42 0.0 0.0 22.5 0.0
23.08.22 03:13:01 1012 14.0 42 0.0 0.0 157.5 0.0
23.08.22 03:08:02 13.9 42 0.0 0.0 157.5 0.0
23.08.22 03:03:02 0.0 1.8 112.5 0.0
23.08.22 02:58:02 1012 14.0 41 0.4 0.0 112.5 0.0
23.08.22 02:52:59 1012 14.2 41 0.4 0.0 112.5 0.0
23.08.22 02:47:59 1012 14.0 41 0.4 0.0 90 0.0
23.08.22 02:42:59 1012 14.1 41 1.1 2.5 112.5 0.0
23.08.22 02:38:01 1012 14.2 41 1.1 2.5 112.5 0.0
23.08.22 02:33:00 1012 14.2 41 0.7 2.2 67.5 0.0
23.08.22 02:28:00 1012 14.3 41 1.1 1.4 135 0.0
23.08.22 02:23:00 1012 14.4 40 1.1 1.4 135 0.0
23.08.22 02:18:00 1012 14.5 40 0.4 1.8 135 0.0
23.08.22 02:13:00 1013 14.5 40 0.0 0.0 112.5 0.0
23.08.22 02:08:01 1013 14.5 40 0.0 0.0 112.5 0.0
23.08.22 02:03:01 1013 14.6 40 0.4 0.0 135 0.0
23.08.22 01:58:00 1013 14.7 40 1.8 1.4 135 0.0
23.08.22 01:53:00 1013 14.7 40 1.8 1.4 135 0.0
23.08.22 01:48:00 1012 14.7 40 2.2 2.9 90 0.0
23.08.22 01:43:00 1013 14.7 40 2.5 2.9 112.5 0.0
23.08.22 01:38:00 1013 14.7 40 2.5 2.9 112.5 0.0
23.08.22 01:33:00 1013 14.8 39 2.9 3.6 67.5 0.0
23.08.22 01:28:00 1013 14.9 39 2.5 2.9 112.5 0.0
23.08.22 01:23:01 1013 15.0 39 2.5 2.9 112.5 0.0
23.08.22 01:18:00 1013 15.0 39 2.5 3.2 112.5 0.0
23.08.22 01:13:00 1013 15.0 39 1.8 2.5 112.5 0.0
23.08.22 01:08:01 1013 15.2 38 1.8 2.5 112.5 0.0
23.08.22 01:03:00 1013 15.2 38 1.4 2.9 112.5 0.0
23.08.22 00:58:00 1013 15.4 38 1.8 2.2 67.5 0.0
23.08.22 00:53:00 1013 15.6 37 1.8 2.2 67.5 0.0
23.08.22 00:48:00 1013 15.6 37 1.8 2.9 90 0.0
23.08.22 00:43:00 1013 15.7 37 2.2 2.9 112.5 0.0
23.08.22 00:38:00 1013 15.7 37 2.2 2.9 112.5 0.0
23.08.22 00:33:00 1013 15.8 37 2.2 2.9 112.5 0.0
23.08.22 00:28:00 15.9 36 2.5 2.5 112.5 0.0
23.08.22 00:23:00 1013 16.1 35 2.5 2.5 112.5 0.0
23.08.22 00:18:00 1013 16.3 35 2.5 2.5 112.5 0.0
23.08.22 00:13:00 1013 16.4 35 2.5 3.2 112.5 0.0
23.08.22 00:08:01 1013 16.5 34 2.5 3.2 112.5 0.0
23.08.22 00:03:00 1013 16.6 34 2.5 2.2 112.5 0.0
22.08.22 23:58:00 1013 16.8 33 2.2 3.6 112.5 0.0
22.08.22 23:53:00 16.8 33 2.2 3.6 112.5 0.0
22.08.22 23:48:00 1013 2.2 3.2 67.5 0.0
22.08.22 23:43:00 1013 16.7 33 1.8 2.5 112.5 0.0
22.08.22 23:38:00 1013 16.5 34 1.8 2.5 112.5 0.0
22.08.22 23:33:00 1013 16.4 34 1.8 2.9 67.5 0.0
22.08.22 23:28:00 1013 16.4 34 2.2 2.5 135 0.0
22.08.22 23:23:01 1013 16.6 33 2.2 2.5 135 0.0
22.08.22 23:18:00 1013 16.7 33 1.4 2.9 112.5 0.0
22.08.22 23:13:00 1013 16.8 33 1.4 1.8 112.5 0.0
22.08.22 23:08:00 1013 16.9 33 1.4 1.8 112.5 0.0
22.08.22 23:03:00 1013 17.1 32 0.7 2.2 90 0.0
22.08.22 22:58:00 1013 17.1 32 1.1 0.0 112.5 0.0
22.08.22 22:53:00 1013 17.1 32 1.1 0.0 112.5 0.0
22.08.22 22:48:00 1013 17.2 32 1.4 1.8 67.5 0.0
22.08.22 22:43:00 1013 17.2 31 1.4 1.8 90 0.0
22.08.22 22:38:00 1013 17.2 31 1.4 1.8 90 0.0
22.08.22 22:33:00 1013 17.4 31 1.1 0.0 112.5 0.0
22.08.22 22:28:00 1013 17.4 31 1.4 0.0 135 0.0
22.08.22 22:23:01 1013 17.6 31 1.4 0.0 135 0.0
22.08.22 22:18:01 1013 17.8 30 1.4 2.9 112.5 0.0
22.08.22 22:13:00 1013 17.9 30 2.2 1.8 90 0.0
22.08.22 22:08:01 1013 18.0 29 2.2 1.8 90 0.0
22.08.22 22:03:01 1013 18.2 28 1.8 1.8 112.5 0.0
22.08.22 21:58:01 1013 18.3 28 1.4 0.0 112.5 0.0
22.08.22 21:53:00 1013 18.5 28 1.4 0.0 112.5 0.0
22.08.22 21:48:00 1013 18.5 27 2.2 2.5 135 0.0
22.08.22 21:43:00 1012 18.7 26 1.4 2.9 112.5 0.0
22.08.22 21:38:00 1012 19.0 25 1.4 2.9 112.5 0.0
22.08.22 21:33:00 1012 19.0 25 1.1 2.5 112.5 0.0
22.08.22 21:28:00 19.3 23 2.2 2.2 90 0.0
22.08.22 21:23:01 1012 19.5 23 2.2 2.2 90 0.0
22.08.22 21:18:00 1012 19.5 22 2.2 2.9 112.5 0.0
22.08.22 21:13:00 1012 19.6 21 1.8 2.5 112.5 0.0
22.08.22 21:08:01 1012 19.7 20 1.8 2.5 112.5 0.0
22.08.22 21:03:01 1012 19.7 20 2.2 3.2 112.5 0.0
22.08.22 20:58:00 1012 19.5 22 1.8 2.2 67.5 0.0
Index
© 2002-2021 Thomas Dreßler
Alle Rechte vorbehalten
letzte Scriptänderung 21.03.2021